Hourly Data Report for October 03, 2003

TORONTO CITY
ONTARIO

43°40'00.000" N
79°24'00.000" W
112.50 m
6158355
71508
XTO

Download Data

Hourly Data (October 2003)
Hourly Data Report for October 3, 2003
TIME
LST
Temp Definition
°C
Dew Point Definition
°C
Rel Hum Definition
%
Precip. Amount Definition
mm

Wind Dir Definition
10's deg

Wind Spd Definition
km/h
Visibility Definition
km
Stn Press Definition
kPa
Hmdx Definition


Wind Chill Definition


Weather Definition


00:00 4.0 -0.3 74   LegendMM LegendMM LegendMM 100.62     LegendNANA
01:00 3.6 0.4 80   LegendMM LegendMM LegendMM 100.62     LegendNANA
02:00 2.5 0.2 85   LegendMM LegendMM LegendMM 100.56     LegendNANA
03:00 3.6 0.9 82   LegendMM LegendMM LegendMM 100.50     LegendNANA
04:00 4.3 1.4 81   LegendMM LegendMM LegendMM 100.42     LegendNANA
05:00 4.7 2.0 83   LegendMM LegendMM LegendMM 100.35     LegendNANA
06:00 5.1 1.2 76   LegendMM LegendMM LegendMM 100.31     LegendNANA
07:00 5.9 1.2 72   LegendMM LegendMM LegendMM 100.25     LegendNANA
08:00 7.1 1.5 68   LegendMM LegendMM LegendMM 100.19     LegendNANA
09:00 8.4 1.5 62   LegendMM LegendMM LegendMM 100.08     LegendNANA
10:00 9.5 4.4 70   LegendMM LegendMM LegendMM 100.02     LegendNANA
11:00 10.1 4.0 66   LegendMM LegendMM LegendMM 99.89     LegendNANA
12:00 LegendMM LegendMM LegendMM   LegendMM LegendMM LegendMM LegendMM     LegendNANA
13:00 10.5 2.1 56   LegendMM LegendMM LegendMM 99.63     LegendNANA
14:00
15:00 10.5 2.7 58   LegendMM LegendMM LegendMM 99.46     LegendNANA
16:00 10.4 1.9 56   LegendMM LegendMM LegendMM 99.36     LegendNANA
17:00 10.7 1.8 54   LegendMM LegendMM LegendMM 99.26     LegendNANA
18:00 10.6 2.1 56   LegendMM LegendMM LegendMM 99.18     LegendNANA
19:00 10.4 2.3 57   LegendMM LegendMM LegendMM 99.15     LegendNANA
20:00 9.8 3.6 65   LegendMM LegendMM LegendMM 99.19     LegendNANA
21:00 8.5 5.0 79   LegendMM LegendMM LegendMM 99.07     LegendNANA
22:00 8.1 5.6 84   LegendMM LegendMM LegendMM 99.02     LegendNANA
23:00 7.6 6.3 91   LegendMM LegendMM LegendMM 98.91     LegendNANA

Notes on Data Quality.

Legend

  • E = Estimated
  • M = Missing
  • NA = Not Available*
  • [empty] = Indicates an unobserved value
Date modified: